Retour au catalogue

STARLINK-35442

ActifCommunicationsVLEO
NORAD 66319·PAYLOAD·🇺🇸 United States

Lancé Nov 6, 2025 depuis Cape Canaveral Space Force Station

Loading…

Prochains Passages (prochaines 24 heures)

TLE

FraisSource: CelesTrak SupGP

Époque: Sep 14, 2026, 23:23 UTC

1 66319C 25253A   26257.97479167 -.00004795  00000+0 -17363-3 0  2570
2 66319  42.9995 223.8567 0001204 262.4643 304.8008 15.27587529    17

Suivez STARLINK-35442 en temps réel avec AllMySat

Download on the App Store